• In India
  • List of Countries
  • For 7 days
  • Water Temperature
  • Satellite Maps
  • Weather Map
  • Weather Widgets
  • user-avatar
    Login

    Hourly Weather Lasek

    Today, 19 February, Tuesday

    Time Temperature Precipitation Wind Pressure Humidity
    00:00 +4°C° 0 mm 3 mps 747 mmHg 65%
    01:00 +4°C° 0 mm 4 mps 747 mmHg 64%
    02:00 +4°C° 0 mm 4 mps 747 mmHg 65%
    03:00 +4°C° 0 mm 4 mps 746 mmHg 66%
    04:00 +3°C° 0 mm 4 mps 746 mmHg 66%
    05:00 +3°C° 0 mm 4 mps 746 mmHg 67%
    06:00 +3°C° 0 mm 4 mps 746 mmHg 68%
    07:00 +2°C° 0 mm 3 mps 746 mmHg 68%
    08:00 +4°C° 0 mm 3 mps 746 mmHg 64%
    09:00 +5°C° 0 mm 4 mps 746 mmHg 60%
    10:00 +7°C° 0 mm 4 mps 746 mmHg 56%
    11:00 +8°C° 0 mm 4 mps 746 mmHg 55%
    12:00 +9°C° 0 mm 5 mps 746 mmHg 54%
    13:00 +10°C° 0 mm 5 mps 746 mmHg 53%
    14:00 +10°C° 0 mm 5 mps 746 mmHg 56%
    15:00 +10°C° 0 mm 5 mps 745 mmHg 60%
    16:00 +10°C° 0 mm 4 mps 745 mmHg 63%
    17:00 +8°C° 0.1 mm 4 mps 745 mmHg 69%
    18:00 +7°C° 0.1 mm 4 mps 746 mmHg 74%
    19:00 +7°C° 0.1 mm 3 mps 746 mmHg 80%
    20:00 +6°C° 0 mm 4 mps 746 mmHg 80%
    21:00 +5°C° 0 mm 4 mps 746 mmHg 81%
    22:00 +5°C° 0 mm 4 mps 746 mmHg 82%
    23:00 +3°C° 0 mm 5 mps 747 mmHg 80%

    Tomorrow, 20 February, Wednesday

    Time Temperature Precipitation Wind Pressure Humidity
    00:00 +3°C° 0 mm 5 mps 747 mmHg 79%
    01:00 +3°C° 0 mm 5 mps 747 mmHg 77%
    02:00 +2°C° 0 mm 5 mps 747 mmHg 79%
    03:00 +2°C° 0 mm 5 mps 747 mmHg 81%
    04:00 +2°C° 0 mm 5 mps 747 mmHg 83%
    05:00 +2°C° 0 mm 5 mps 748 mmHg 84%
    06:00 +1°C° 0 mm 5 mps 748 mmHg 85%
    07:00 +1°C° 0 mm 5 mps 748 mmHg 86%
    08:00 +2°C° 0 mm 5 mps 748 mmHg 81%
    09:00 +3°C° 0 mm 6 mps 749 mmHg 77%
    10:00 +4°C° 0 mm 6 mps 749 mmHg 72%
    11:00 +5°C° 0 mm 6 mps 749 mmHg 69%
    12:00 +5°C° 0 mm 6 mps 750 mmHg 65%
    13:00 +7°C° 0 mm 6 mps 750 mmHg 62%
    14:00 +7°C° 0 mm 6 mps 750 mmHg 62%
    15:00 +7°C° 0 mm 5 mps 750 mmHg 63%
    16:00 +7°C° 0 mm 5 mps 750 mmHg 64%
    17:00 +6°C° 0 mm 4 mps 750 mmHg 69%
    18:00 +5°C° 0 mm 3 mps 751 mmHg 73%
    19:00 +5°C° 0 mm 3 mps 751 mmHg 78%
    20:00 +4°C° 0 mm 3 mps 751 mmHg 79%
    21:00 +4°C° 0 mm 3 mps 751 mmHg 79%
    22:00 +4°C° 0 mm 3 mps 752 mmHg 80%
    23:00 +4°C° 0 mm 3 mps 752 mmHg 80%

    Day after tomorrow, 21 February, Thursday

    Time Temperature Precipitation Wind Pressure Humidity
    00:00 +3°C° 0 mm 3 mps 752 mmHg 80%
    01:00 +3°C° 0 mm 3 mps 752 mmHg 80%
    02:00 +3°C° 0 mm 3 mps 752 mmHg 79%
    03:00 +3°C° 0 mm 3 mps 752 mmHg 77%
    04:00 +4°C° 0 mm 3 mps 752 mmHg 76%
    05:00 +4°C° 0.1 mm 4 mps 752 mmHg 76%
    06:00 +4°C° 0.1 mm 4 mps 752 mmHg 77%
    07:00 +4°C° 0.1 mm 4 mps 752 mmHg 77%
    08:00 +5°C° 0.1 mm 4 mps 752 mmHg 75%
    09:00 +6°C° 0.1 mm 5 mps 752 mmHg 73%
    10:00 +6°C° 0.1 mm 5 mps 752 mmHg 71%
    11:00 +7°C° 0.1 mm 6 mps 752 mmHg 68%
    12:00 +8°C° 0.1 mm 6 mps 751 mmHg 65%
    13:00 +9°C° 0.1 mm 6 mps 751 mmHg 62%
    14:00 +9°C° 0 mm 6 mps 751 mmHg 63%
    15:00 +8°C° 0 mm 6 mps 751 mmHg 64%
    16:00 +8°C° 0 mm 5 mps 750 mmHg 65%
    17:00 +8°C° 0.5 mm 5 mps 750 mmHg 71%
    18:00 +7°C° 0.5 mm 6 mps 750 mmHg 76%
    19:00 +5°C° 0.5 mm 6 mps 750 mmHg 81%
    20:00 +5°C° 0.3 mm 6 mps 750 mmHg 83%
    21:00 +5°C° 0.3 mm 6 mps 750 mmHg 85%
    22:00 +5°C° 0.3 mm 7 mps 750 mmHg 87%
    23:00 +5°C° 0.5 mm 7 mps 750 mmHg 88%

    22 February, Friday

    Time Temperature Precipitation Wind Pressure Humidity
    00:00 +5°C° 0.5 mm 7 mps 751 mmHg 89%
    01:00 +5°C° 0.5 mm 7 mps 751 mmHg 90%
    02:00 +5°C° 0.6 mm 7 mps 751 mmHg 90%
    03:00 +5°C° 0.6 mm 7 mps 751 mmHg 89%
    04:00 +5°C° 0.6 mm 7 mps 752 mmHg 89%
    05:00 +4°C° 0.1 mm 7 mps 753 mmHg 88%
    06:00 +3°C° 0.1 mm 7 mps 754 mmHg 87%
    07:00 +2°C° 0.1 mm 7 mps 755 mmHg 86%
    08:00 +2°C° 0 mm 6 mps 756 mmHg 84%
    09:00 +1°C° 0 mm 5 mps 756 mmHg 81%
    10:00 0°C° 0 mm 4 mps 757 mmHg 79%
    11:00 +1°C° 0 mm 4 mps 758 mmHg 73%
    12:00 +1°C° 0 mm 4 mps 758 mmHg 68%
    13:00 +1°C° 0 mm 4 mps 759 mmHg 63%
    14:00 +1°C° 0 mm 4 mps 759 mmHg 61%
    15:00 +1°C° 0 mm 4 mps 760 mmHg 59%
    16:00 +2°C° 0 mm 3 mps 760 mmHg 57%
    17:00 +1°C° 0 mm 3 mps 761 mmHg 61%
    18:00 0°C° 0 mm 3 mps 761 mmHg 65%
    19:00 -1°C° 0 mm 2 mps 762 mmHg 69%
    20:00 -2°C° 0 mm 2 mps 762 mmHg 68%
    21:00 -2°C° 0 mm 2 mps 763 mmHg 68%
    22:00 -2°C° 0 mm 2 mps 763 mmHg 68%
    23:00 -2°C° 0 mm 2 mps 763 mmHg 66%

    23 February, Saturday

    Time Temperature Precipitation Wind Pressure Humidity
    00:00 0°C° 0 mm 1 mps 763 mmHg 64%
    01:00 0°C° 0 mm 1 mps 763 mmHg 62%
    02:00 -1°C° 0 mm 1 mps 763 mmHg 62%
    03:00 -1°C° 0 mm 1 mps 763 mmHg 62%
    04:00 -1°C° 0 mm 1 mps 763 mmHg 62%
    05:00 -1°C° 0 mm 1 mps 763 mmHg 62%
    06:00 -1°C° 0 mm 1 mps 763 mmHg 61%
    07:00 -1°C° 0 mm 1 mps 763 mmHg 60%
    08:00 0°C° 0 mm 1 mps 763 mmHg 53%
    09:00 +1°C° 0 mm 1 mps 763 mmHg 45%
    10:00 +2°C° 0 mm 1 mps 763 mmHg 38%
    11:00 +3°C° 0 mm 1 mps 762 mmHg 35%
    12:00 +3°C° 0 mm 0 mps 762 mmHg 32%
    13:00 +4°C° 0 mm 0 mps 762 mmHg 28%
    14:00 +5°C° 0 mm 1 mps 761 mmHg 31%
    15:00 +5°C° 0 mm 1 mps 761 mmHg 33%
    16:00 +4°C° 0 mm 1 mps 760 mmHg 35%
    17:00 +4°C° 0 mm 1 mps 761 mmHg 39%
    18:00 +3°C° 0 mm 1 mps 761 mmHg 43%
    19:00 +2°C° 0 mm 1 mps 761 mmHg 47%
    20:00 +2°C° 0 mm 1 mps 761 mmHg 48%
    21:00 0°C° 0 mm 0 mps 761 mmHg 49%
    22:00 0°C° 0 mm 0 mps 761 mmHg 50%
    23:00 0°C° 0 mm 0 mps 761 mmHg 49%

    24 February, Sunday

    Time Temperature Precipitation Wind Pressure Humidity
    00:00 0°C° 0 mm 0 mps 761 mmHg 49%
    01:00 0°C° 0 mm 0 mps 761 mmHg 49%
    02:00 0°C° 0 mm 0 mps 761 mmHg 50%
    03:00 -1°C° 0 mm 0 mps 761 mmHg 51%
    04:00 -1°C° 0 mm 0 mps 761 mmHg 51%
    05:00 -1°C° 0 mm 0 mps 761 mmHg 51%
    06:00 -1°C° 0 mm 0 mps 761 mmHg 51%
    07:00 -1°C° 0 mm 0 mps 761 mmHg 51%
    08:00 0°C° 0 mm 0 mps 762 mmHg 48%
    09:00 +2°C° 0 mm 1 mps 762 mmHg 45%
    10:00 +4°C° 0 mm 1 mps 762 mmHg 42%
    11:00 +4°C° 0 mm 1 mps 762 mmHg 44%
    12:00 +5°C° 0 mm 1 mps 762 mmHg 47%
    13:00 +6°C° 0 mm 1 mps 762 mmHg 49%
    14:00 +6°C° 0 mm 1 mps 762 mmHg 51%
    15:00 +6°C° 0 mm 1 mps 762 mmHg 54%
    16:00 +6°C° 0 mm 1 mps 762 mmHg 56%
    17:00 +4°C° 0 mm 1 mps 762 mmHg 61%
    18:00 +3°C° 0 mm 1 mps 762 mmHg 66%
    19:00 +2°C° 0 mm 1 mps 762 mmHg 70%
    20:00 +2°C° 0 mm 1 mps 762 mmHg 72%
    21:00 +1°C° 0 mm 1 mps 762 mmHg 73%
    22:00 +1°C° 0 mm 1 mps 762 mmHg 74%
    23:00 +1°C° 0 mm 1 mps 762 mmHg 74%
    Show more